[TLELIST] Archives

 

[list_settings.list_name] Current TLEs

March 30th 2011 PST

HST 1 20580U 90037B 11086.68389026 .00001052 00000-0 67275-4 0 7360 2 20580 028.4702 188.8101 0003225 339.6807 020.3762 15.01230235947399 ISS (ZARYA) 1 25544U 98067A 11088.15384590 .00008602 00000-0 68083-4 0 900 2 25544 051.6395 211.5735 0002254 041.5692 017.7946 15.72291445708307 CXO 1 25867U 99040B 11087.00000000 .00000084 00000-0 00000+0 0 5859 2 25867 068.8119 037.0733 8540543 276.2679 358.0091 00.37805853 7466 ____________________________________________________________________ These 2-Line ...Continue Reading

[list_settings.list_name] Current TLEs

March 29th 2011 PST

HST 1 20580U 90037B 11086.68389026 .00001052 00000-0 67275-4 0 7360 2 20580 028.4702 188.8101 0003225 339.6807 020.3762 15.01230235947399 ISS (ZARYA) 1 25544U 98067A 11087.33340912 .00033828 00000-0 25430-3 0 848 2 25544 051.6465 215.7627 0001606 044.6316 047.7989 15.72231457708170 CXO 1 25867U 99040B 11087.00000000 .00000084 00000-0 00000+0 0 5859 2 25867 068.8119 037.0733 8540543 276.2679 358.0091 00.37805853 7466 ____________________________________________________________________ These 2-Line ...Continue Reading

[list_settings.list_name] Current TLEs

March 28th 2011 PST

HST 1 20580U 90037B 11084.75592949 .00000907 00000-0 56223-4 0 7354 2 20580 028.4705 201.4022 0003161 315.8152 044.2228 15.01226002947102 ISS (ZARYA) 1 25544U 98067A 11086.17281250 .00032870 00000-0 24811-3 0 778 2 25544 051.6460 221.7072 0001606 039.4443 319.7099 15.72149248707987 CXO 1 25867U 99040B 11087.00000000 .00000084 00000-0 00000+0 0 5859 2 25867 068.8119 037.0733 8540543 276.2679 358.0091 00.37805853 7466 ____________________________________________________________________ These 2-Line ...Continue Reading

[list_settings.list_name] Current TLEs

March 27th 2011 PST

PUBLIC "-//W3C//DTD XHTML 1.0 Transitional//EN" "http://www.w3.org/TR/xhtml1/DTD/xhtml1-transitional.dtd"> ____________________________________________________________________ These 2-Line Elements (TLEs) are direct from DoD/ USSTRATCOM/ US Space Command with permission. Updates are provided automatically daily. By receiving this email, you agree not to transfer any data or information received under this agreement, including the analysis of tracking data, to any other entity without the ...Continue Reading

[list_settings.list_name] Current TLEs

March 26th 2011 PST

HST 1 20580U 90037B 11083.75870784 .00000860 00000-0 52671-4 0 7349 2 20580 028.4708 207.9160 0003187 303.9680 056.0677 15.01224201946951 ISS (ZARYA) 1 25544U 98067A 11084.34427270 .00021466 00000-0 16483-3 0 662 2 25544 051.6463 231.0671 0001261 045.4012 038.1025 15.72003778707703 CXO 1 25867U 99040B 11084.33333333 -.00000111 00000-0 00000+0 0 5841 2 25867 068.7958 037.2210 8538484 276.2450 355.0426 00.37809532 7452 ____________________________________________________________________ These 2-Line ...Continue Reading

[list_settings.list_name] Current TLEs

March 25th 2011 PST

HST 1 20580U 90037B 11081.63129642 .00000849 00000-0 51819-4 0 7333 2 20580 028.4716 221.8120 0003172 281.0775 078.9467 15.01221220946639 ISS (ZARYA) 1 25544U 98067A 11083.51615068 .00020348 00000-0 15678-3 0 623 2 25544 051.6457 235.3065 0001300 042.4927 031.3771 15.71962334707575 CXO 1 25867U 99040B 11084.33333333 -.00000111 00000-0 00000+0 0 5841 2 25867 068.7958 037.2210 8538484 276.2450 355.0426 00.37809532 7452 ____________________________________________________________________ These 2-Line ...Continue Reading

[list_settings.list_name] Current TLEs

March 24th 2011 PST

HST 1 20580U 90037B 11081.63129642 .00000849 00000-0 51819-4 0 7333 2 20580 028.4716 221.8120 0003172 281.0775 078.9467 15.01221220946639 ISS (ZARYA) 1 25544U 98067A 11082.50469466 .00020169 00000-0 15572-3 0 567 2 25544 051.6452 240.4846 0001215 042.4219 063.7768 15.71919276707418 CXO 1 25867U 99040B 11081.70833333 -.00000097 00000-0 00000+0 0 5836 2 25867 068.7792 037.4021 8533407 276.2114 357.7651 00.37811650 7449 ____________________________________________________________________ These 2-Line ...Continue Reading

[list_settings.list_name] Current TLEs

March 23rd 2011 PST

HST 1 20580U 90037B 11080.83351597 .00000837 00000-0 50932-4 0 7321 2 20580 028.4714 227.0214 0003195 272.0623 087.9586 15.01220029946511 ISS (ZARYA) 1 25544U 98067A 11081.28893955 .00021249 00000-0 16412-3 0 480 2 25544 051.6449 246.7112 0001351 029.1443 032.6884 15.71871686707226 CXO 1 25867U 99040B 11081.70833333 -.00000097 00000-0 00000+0 0 5836 2 25867 068.7792 037.4021 8533407 276.2114 357.7651 00.37811650 7449 ____________________________________________________________________ These 2-Line ...Continue Reading

[list_settings.list_name] Current TLEs

March 22nd 2011 PST

HST 1 20580U 90037B 11079.83629003 .00000926 00000-0 57672-4 0 7315 2 20580 028.4724 233.5379 0003260 261.0773 098.9415 15.01219358946362 ISS (ZARYA) 1 25544U 98067A 11080.52684628 .00019066 00000-0 14798-3 0 424 2 25544 051.6445 250.6136 0001328 025.1879 041.3016 15.71836610707104 CXO 1 25867U 99040B 11081.70833333 -.00000097 00000-0 00000+0 0 5836 2 25867 068.7792 037.4021 8533407 276.2114 357.7651 00.37811650 7449 ____________________________________________________________________ These 2-Line ...Continue Reading

[list_settings.list_name] Current TLEs

March 21st 2011 PST

HST 1 20580U 90037B 11078.83906370 .00001027 00000-0 65343-4 0 7305 2 20580 028.4719 240.0520 0003293 250.8496 109.1698 15.01218498946217 ISS (ZARYA) 1 25544U 98067A 11079.31789793 .00129175 00000-0 96347-3 0 342 2 25544 051.6425 256.8047 0001238 047.7395 013.2967 15.71833647706912 CXO 1 25867U 99040B 11079.08333333 .00000115 00000-0 00000+0 0 5828 2 25867 068.7604 037.5369 8526221 276.2185 000.4014 00.37805966 7438 ____________________________________________________________________ These 2-Line ...Continue Reading
  • This mailing list is a public mailing list - anyone may join or leave, at any time.
  • This mailing list is announce-only.

International Space Station (ISS) / Hubble Space Telescope (HST) / Chandra X-Ray Observatory Orbital Data via EMAIL

Privacy Policy:

Private list